{"data":{"norad_id":48314,"intl_designator":"2021-036AQ","name":"STARLINK-2549","alt_names":[],"object_type":"PAYLOAD","status":"ACTIVE","operator":null,"country":"US","launch_date":"2021-04-29","launch_site_code":"AFETR","launch_vehicle":null,"mission":null,"orbit_class":"UNKNOWN","rcs_meters":null,"size_class":null,"mass_kg":null,"dimensions":null,"purposes":["comms"],"wikipedia_slug":null,"has_3d_model":false,"image_url":null,"decayed_at":null,"tle_current":{"epoch":"2026-09-19T13:27:12.340800Z","epoch_age_seconds":114727,"freshness":"FRESH","line1":"1 48314U 21036AQ  26262.56055950 -.00002894  00000+0 -81527-4 0  9996","line2":"2 48314  53.1579 268.6427 0001405  84.8242 275.2919 15.31695517297887","mean_motion":15.31695517,"eccentricity":0.0001405,"inclination_deg":53.1579,"raan_deg":268.6427,"arg_perigee_deg":84.8242,"mean_anomaly_deg":275.2919,"bstar":-8.1527e-5,"rev_number":29788,"period_min":94.013463120947,"perigee_km":469.79108975255,"apogee_km":471.71562794338,"semimajor_km":6848.890358848,"source":"CELESTRAK","updated_at":"2026-09-20T09:00:38.934494Z"}}}